Regional Weather Roundup
Issued by NWS Bismarck, ND

Home | Current Version | Previous Version | Text Only | Print | Product List | Glossary On
Versions: 1 2 3 4 5 6 7 8 9 10 11 12 13 14 15 16 17 18 19 20 21 22 23 24 25 26 27 28 29 30 31 32 33 34 35 36 37 38 39 40 41 42 43 44 45 46 47 48 49 50
000
ASUS43 KBIS 231010
RWRBIS

NWR BROADCAST TEXT
NATIONAL WEATHER SERVICE BISMARCK ND
500 AM CDT WED AUG 23 2017

NOTE: "FAIR" INDICATES FEW OR NO CLOUDS BELOW 12,000 FEET WITH NO
SIGNIFICANT WEATHER AND/OR OBSTRUCTIONS TO VISIBILITY.


CITY           SKY/WX    TMP DP  RH WIND       PRES   REMARKS
WILLISTON      CLEAR     57  42  57 SW6       30.04F
MINOT          CLEAR     59  46  62 SE3       30.03F
MINOT AFB      PTCLDY    54  46  74 S7        30.02F
BISMARCK       CLEAR     50  47  89 CALM      30.10F
DICKINSON      CLEAR     52  42  69 S9        30.08F
GARRISON         N/A     54  47  77 S3        30.06F
HETTINGER ARPT CLEAR     55  44  66 SE10      30.10F
JAMESTOWN      CLOUDY    48  45  89 SE3       30.09F
CARRINGTON     FAIR      50  46  87 CALM      30.11F
HAZEN            N/A     45  45 100 CALM      30.09F
LINTON         FAIR      46  43  87 SE8       30.12F
MANDAN         CLOUDY    52  45  76 S9        30.10F
RUGBY          FAIR      50  46  87 SE5       30.06F
STANLEY        PTSUNNY   54  45  71 SW5       30.07F
TIOGA          FAIR      57  41  54 CALM      30.06F
WATFORD CITY   FAIR      52  39  62 CALM      30.05F
$$

CITY           SKY/WX    TMP DP  RH WIND       PRES   REMARKS
GRAND FORKS    CLEAR     46  44  93 W3        30.09S
GRAND FORKS AF CLEAR     45  44  96 CALM      30.09S
DEVILS LAKE    MOCLDY    57  50  77 SE5       30.09F
FARGO          CLEAR     48  45  89 W3        30.09F
CANDO          FAIR      48  48 100 E6        30.10F
CAVALIER       PTSUNNY   48  48 100 CALM      30.08S
GRAFTON        FAIR      45  45 100 CALM      30.11S
GWINNER        SUNNY     50  48  93 W8        30.11S
LANGDON        PTSUNNY   46  46 100 S3        30.10F
ROLLA          PTSUNNY   43  43 100 SW6       30.08F
WALHALLA       FAIR      50  50 100 CALM      30.08F
$$

CITY           SKY/WX    TMP DP  RH WIND       PRES   REMARKS
ABERDEEN       CLEAR     44  44 100 S5        30.12F
MOBRIDGE       CLEAR     57  46  66 E8        30.08F
BUFFALO          N/A     53  48  83 NE10      30.02F
RAPID CITY     CLEAR     57  48  72 CALM      30.06F
GLASGOW        CLEAR     60  36  40 E10       30.00F
SIDNEY         CLEAR     54  41  61 SW6       30.05F
WOLF POINT     CLEAR     57  38  48 CALM      30.02F
GLENDIVE       CLEAR     62  42  47 S3        30.06F
MILES CITY     CLEAR     60  39  45 NE5       30.02F
BAKER          CLEAR     53  43  68 E10       30.09F
$$

CITY           SKY/WX    TMP DP  RH WIND       PRES   REMARKS
BILLINGS       CLEAR     62  38  40 W9        30.04S
GREAT FALLS    CLEAR     55  32  41 SW9       30.02S
REGINA         CLEAR     50  41  71 SE9       29.97F
ESTEVAN        PTCLDY    46  43  87 CALM      30.02F
$$




USA.gov is the U.S. government's official web portal to all federal, state and local government web resources and services.